Location: Burla
(50.9568°N, 10.4983°E)
Time: 18:19:14
(UTC+00:00)

Lacrosse 5 rocket - Pass Details

Date: 18 January 2026
Orbit: 401 x 481 km, 57.0° (Epoch: 16 February)

Event Time Altitude Azimuth Distance (km) Brightness Sun altitude
Exits shadow 03:48:08 15° 52° (NE) 1,411 4.0 -31.5°
Drops below altitude 10° 03:48:55 10° 59° (ENE) 1,685 4.5 -31.4°
Sets 03:51:15 0° 69° (ENE) 2,568 5.8 -31.0°
